User: anonymous   Login
Location: Moonridge Observatory
(39.2268°N, 77.7914°W)
Time: 14:51:51
(UTC-05:00)
Language:

CZ-2C R/B - Orbit

View from above orbital plane
View from above orbital plane
View from above satellite
View from above satellite

Ground track
Ground track

The orbit data is extracted from the following two-line orbital elements,

1 28480U 04046B   14355.03483047  .00000356  00000-0  15086-3 0  5143
2 28480 098.1130 136.8995 0142737 029.7974 081.0060 14.25409798524701
Epoch (UTC): 21 December 2014 00:50:09
Eccentricity: 0.0142737
inclination: 98.1130°
perigee height: 704 km
apogee height: 909 km
right ascension of ascending node: 136.8995°
argument of perigee: 29.7974°
revolutions per day: 14.25409798
mean anomaly at epoch: 81.0060°
orbit number at epoch: 52470

The dashed part of the orbit path shows where the satellite is in the earth's shadow,  

DLR